Location: Bei der Kirchstrasse
(47.1358°N, 9.5177°E)
Time: 17:52:12
(UTC+00:00)

Daily predictions for brighter satellites

Satellite Brightness Start Highest point End
(mag) Time Altitude Azimuth Time Altitude Azimuth Time Altitude Azimuth
Meteor 1-21 Rocket 4.4 19:50:22 10° S 19:56:10 64° E 20:02:03 10° NNE
USA 267 4.3 19:50:44 10° E 19:56:51 44° NNE 20:03:00 10° NW
SPOT 1/Viking Rocket 4.2 19:52:13 10° SE 19:56:59 41° ENE 20:01:48 10° N
Alouette 2 Rocket 4.3 19:57:24 10° N 20:00:59 38° ENE 20:05:35 10° SE
Cosmos 2322 Rocket 2.4 19:55:58 10° SSW 20:01:34 79° WNW 20:07:14 10° NNE
SL-08 ROCKET BODY 4.4 19:56:42 10° S 20:02:35 70° E 20:08:37 10° NNE
SPOT 3 Rocket 4.3 19:57:56 10° S 20:03:01 53° W 20:08:09 10° NNW
NOSS 7 (D) 3.8 20:00:52 10° SSW 20:03:41 58° SE 20:06:20 10° NE
Cosmos 2237 4.3 19:58:39 10° SSW 20:04:19 65° ESE 20:10:00 10° NNE
Cosmos 1328 4.4 20:03:05 10° SSE 20:06:46 38° E 20:10:28 10° NNE
Cosmos 1455 2.2 20:08:18 10° N 20:12:10 86° E 20:16:01 10° S
Cosmos 1825 Rocket 3.8 20:11:46 10° S 20:16:04 52° E 20:20:25 10° NNE
ATLAS CENTAUR R/B 2.6 20:15:28 10° NNW 20:18:42 27° NE 20:21:53 10° ESE
Cosmos 1703 3.3 20:16:49 10° S 20:20:39 62° E 20:24:29 10° NNE
COSMOS 2428 3.6 20:16:53 10° SSE 20:21:38 29° ESE 20:26:25 10° NE
Cosmos 1812 Rocket 4.2 20:18:07 10° NNW 20:22:23 55° W 20:26:36 10° S
Cosmos 1844 3.8 20:18:20 10° NNW 20:24:09 77° ENE 20:29:32 12° SSE
Cosmos 2322 3.9 20:19:54 10° S 20:25:23 50° ESE 20:30:54 10° NE
Cosmos 783 Rocket 4.5 20:26:19 10° SSW 20:31:33 77° ESE 20:36:47 10° NNE
Cosmos 2263 Rocket 4.5 20:28:17 10° WNW 20:31:57 18° W 20:35:35 10° SW
Cosmos 1709 Rocket 4.1 20:25:59 10° S 20:32:10 66° E 20:38:30 10° NNE
Nadezhda 1 Rocket 4.5 20:26:38 10° NNW 20:32:59 66° W 20:39:18 10° S
NOSS 3-3 (A) 4.4 20:28:33 10° S 20:33:53 39° ESE 20:39:46 10° NE
NOSS 3-3 (C) 4.4 20:28:41 10° S 20:34:00 38° ESE 20:39:54 10° NE
Terra 2.6 20:31:40 13° SE 20:35:33 38° ENE 20:39:58 10° N
Atlas Centaur 2 3.9 20:31:35 10° SW 20:35:34 18° S 20:38:47 13° SE
Cosmos 2237 Rocket 3.9 20:33:12 12° SE 20:35:37 15° E 20:38:41 10° ENE
CARTOSAT-1 3.8 20:32:57 13° SSE 20:36:38 57° ENE 20:40:54 10° N
Cosmos 2333 4.3 20:31:38 10° S 20:37:09 59° ESE 20:42:46 10° NNE
Cosmos 2219 Rocket 2.6 20:32:23 10° S 20:37:35 42° ESE 20:42:50 10° NE
Cosmos 2360 Rocket 2.5 20:33:49 10° SSW 20:39:27 75° WNW 20:45:09 10° NNE
IGS 5A 3.7 20:35:42 10° S 20:39:50 69° WSW 20:44:00 10° NNW
Cosmos 2333 Rocket 2.4 20:41:50 10° S 20:47:20 54° ESE 20:52:54 10° NE
ATLAS 2AS CENTAUR R/B 3.9 20:44:11 10° NW 20:51:23 40° NNE 20:58:03 10° E
Cosmos 1315 Rocket 3.2 20:47:26 10° N 20:51:27 51° ENE 20:54:13 19° SE
Resurs 01 Rocket 3.6 20:48:18 10° SSW 20:51:52 24° W 20:55:27 10° NW
Cosmos 1818 4.1 20:49:29 10° SW 20:54:52 65° NW 21:00:19 10° NNE
Cosmos-2242 3.6 20:50:40 10° NNW 20:54:55 56° W 20:59:06 10° S
Cosmos 773 Rocket 4.0 20:52:05 10° SSW 20:57:23 83° ESE 21:02:42 10° NNE
SL-16 R/B 4.4 20:53:54 10° WSW 20:58:48 29° NW 21:03:43 10° N
Cosmos 2221 3.3 20:55:48 10° N 20:59:55 38° ENE 21:02:29 19° SE
ERS-1 Rocket 3.0 20:56:51 15° SSE 21:01:05 82° WSW 21:06:10 10° NNW
GEOS 3 Rocket 3.9 20:58:00 10° NE 21:03:25 79° NW 21:08:48 10° SW
USA 215 3.2 21:00:13 10° ENE 21:06:46 67° SE 21:13:15 10° SW
Cosmos 1892 4.1 21:07:02 20° ESE 21:08:17 23° E 21:11:20 10° NE
Cosmos 2278 Rocket 2.8 21:03:33 10° NNW 21:09:04 49° NE 21:13:09 18° SE
ATLAS 5 CENTAUR R/B 2.5 21:07:32 10° WSW 21:11:37 50° NW 21:16:16 10° NNE
Meteor 1-11 4.3 21:06:18 10° SSW 21:11:55 80° W 21:17:39 10° N
Cosmos 1844 Rocket 3.7 21:08:37 10° NW 21:13:43 38° WSW 21:18:16 13° S
Cosmos 1400 Rocket 4.3 21:10:39 10° NNW 21:14:12 31° W 21:17:41 10° SSW
Gblst 52 Del rocket 4.3 21:09:19 10° WNW 21:15:02 89° NNE 21:20:33 14° ESE
SPOT 5 3.2 21:13:56 17° S 21:17:50 66° WSW 21:22:38 10° NNW
SL-16 R/B 4.1 21:18:56 11° ESE 21:20:02 12° E 21:22:08 10° ENE
Lacrosse 5 rocket 4.0 21:17:32 10° NW 21:20:42 20° N 21:23:44 10° NE
USA 81 4.3 21:19:52 12° SSW 21:24:48 70° W 21:30:06 10° N
Cosmos 2058 3.5 21:25:00 27° SE 21:26:41 39° E 21:30:33 10° NNE
Cosmos 2154 Rocket 4.5 21:23:04 21° SSE 21:26:44 43° E 21:32:33 10° NNE
BREEZE M DEB (TANK) 3.1 21:26:01 10° W 21:27:39 23° SW 21:27:39 23° SW
Cosmos 2181 Rocket 4.4 21:22:54 10° NNW 21:29:10 63° W 21:34:15 15° S
Cosmos 1408 3.9 21:29:06 22° ESE 21:29:45 24° E 21:32:40 10° NE
In-Cosmos 22 Rocket 4.3 21:29:55 24° SSE 21:33:01 55° E 21:38:13 10° NNE
Cosmos 2074 Rocket 4.0 21:29:16 18° S 21:33:58 77° E 21:40:12 10° NNE
TSX-5 3.8 21:32:17 10° NNW 21:35:45 64° ENE 21:37:36 30° SE
Cosmos 1076 Rocket 3.9 21:36:08 29° SSE 21:37:52 47° E 21:41:59 10° NNE
Cosmos 1680 Rocket 4.0 21:35:42 26° SSE 21:38:15 43° ESE 21:43:17 10° NE
USA 267 3.3 21:34:04 16° ESE 21:39:29 85° NE 21:46:05 10° NW
Cosmos 2084 3.9 21:41:56 10° NW 21:46:17 52° SW 21:48:05 31° S
Cosmos 1842 Rocket 3.9 21:42:26 10° NNW 21:46:45 60° W 21:49:02 26° SSW
JB-3 4.2 21:44:13 10° NNE 21:48:05 85° WNW 21:49:57 29° SSW
Cosmos 2151 4.2 21:47:18 24° ESE 21:48:25 27° E 21:52:02 10° NNE
MTI 4.0 21:48:58 10° N 21:52:02 61° WNW 21:53:10 33° SW
Cosmos 923 Rocket 3.9 21:52:20 23° SSW 21:55:43 78° ESE 22:01:02 10° NNE
Cosmos 2327 Rocket 4.4 21:52:14 24° S 21:56:09 78° E 22:02:18 10° N
ATLAS CENTAUR R/B 2.1 21:54:18 10° NW 21:57:36 32° WSW 21:58:26 28° SSW
Cosmos 1825 2.9 21:58:08 33° ESE 21:58:48 36° E 22:02:18 10° NNE
ALOS 2 3.8 21:58:03 22° ESE 22:00:00 31° ENE 22:03:53 10° N
Cosmos 1980 3.6 21:56:54 22° SSW 22:00:33 71° ESE 22:06:12 10° NNE
Cosmos 2369 Rocket 4.4 21:57:14 10° N 22:00:57 18° NE 22:04:40 10° E
Cosmos 967 Rocket 4.5 21:56:23 10° SSW 22:02:52 88° ESE 22:09:23 10° NE
Cosmos 44 4.3 22:05:15 24° ESE 22:05:15 24° ESE 22:08:36 10° ENE
COSMOS 2428 3.5 22:00:08 10° SW 22:05:37 50° WNW 22:11:11 10° NNE
Cosmos 1869 4.3 22:03:54 10° NNW 22:07:39 40° W 22:09:22 26° SW
Cosmos 1295 Rocket 4.4 22:06:31 28° S 22:09:52 72° E 22:15:57 10° NNE
GP-B 4.2 22:06:09 10° NNE 22:10:07 31° E 22:11:23 26° ESE
NOSS 0 Rocket 3.9 22:07:31 14° SSW 22:12:57 83° WNW 22:19:11 10° NNE
Terra 3.4 22:10:33 16° SW 22:13:23 27° W 22:17:28 10° NW
Cosmos 1624 Rocket 4.1 22:09:20 10° NNW 22:14:34 69° ENE 22:16:57 32° SE
NOSS 3-4 (A) 3.8 22:08:01 10° NW 22:15:00 89° SW 22:19:47 26° SE
NOSS 3-4 (C) 3.8 22:08:07 10° NW 22:15:07 90° SW 22:19:55 25° SE
Cosmos 2237 Rocket 2.2 22:14:58 22° SSW 22:18:50 90° S 22:24:35 10° NNE
Genesis I 3.1 22:18:36 47° S 22:19:33 69° SE 22:23:26 10° NE
Cosmos 2344 3.5 22:16:02 19° SSW 22:21:31 64° ESE 22:29:22 10° NE
Cosmos 2219 Rocket 3.6 22:16:30 10° WSW 22:21:36 36° NW 22:26:47 10° NNE
Elektron 1 4.4 22:21:22 28° SW 22:23:02 83° NW 22:28:29 10° NE
Atlas Centaur 2 4.4 22:19:59 10° SW 22:21:21 13° SW 22:21:21 13° SW
DELTA 2 R/B (1) 4.0 22:24:48 10° WSW 22:29:53 36° S 22:30:03 36° SSE
Thor Agena Rocket 3.5 22:25:37 10° NNE 22:30:45 80° WNW 22:33:18 30° SSW
Cosmos 2333 Rocket 4.0 22:26:55 10° WSW 22:31:54 30° NW 22:36:56 10° NNE
Cosmos 2221 4.4 22:33:51 10° NW 22:37:14 22° W 22:39:20 16° SW
Iridium 2 4.4 22:37:50 10° NNW 22:41:30 46° W 22:42:26 37° SW
BREEZE-M DEB (TANK) 1.4 22:38:04 10° WNW 22:41:22 72° WNW 22:41:22 72° WNW
Cosmos 1371 Rocket 4.1 22:37:05 10° NNW 22:42:18 64° WSW 22:44:15 38° S
ATLAS 2AS CENTAUR R/B 2.8 22:35:25 10° NW 22:42:56 69° WSW 22:46:25 32° SSE
EO 1 Del DPAF 3.7 22:40:08 10° N 22:43:49 55° WNW 22:44:59 37° SW
Cosmos 1892 4.4 22:42:00 18° WSW 22:43:52 27° WNW 22:47:08 10° NNW
Cosmos 1766 Rocket 3.5 22:44:24 48° SSE 22:45:30 70° E 22:49:55 10° NNE
MOS 1-B Rocket 4.5 22:37:53 10° NNE 22:45:42 79° WNW 22:49:56 25° SSW
Gbstr 26 Del rocket 4.3 22:49:28 22° E 22:49:28 22° E 22:51:29 10° ENE
Okean 3 Rocket 3.5 22:47:02 47° S 22:48:19 86° ESE 22:52:47 10° N
Cosmos 1328 Rocket 3.6 22:45:01 10° N 22:49:19 66° E 22:50:25 46° SE
Aureole 2 Rocket 2.2 22:46:31 10° NNW 22:48:59 64° NNW 22:48:59 64° NNW
USA 215 4.0 22:43:20 10° NE 22:49:41 54° NNW 22:56:01 10° W
Cosmos 1606 2.6 22:47:45 10° N 22:51:40 90° ESE 22:52:19 60° S
Cosmos 2278 Rocket 3.4 22:48:05 10° NW 22:52:54 29° WSW 22:54:59 23° SW
Cosmos 2218 Rocket 4.1 22:50:54 34° SSE 22:53:47 70° E 23:00:04 10° NNE
Cosmos 2297 3.7 22:48:56 10° NNW 22:54:44 89° ENE 22:57:11 36° SSE
Cosmos 1420 Rocket 4.0 22:53:14 10° NNW 22:58:34 85° ENE 23:00:36 39° SSE
Cosmos 2366 rocket 4.1 22:56:35 35° S 22:59:27 73° E 23:05:48 10° NNE
Lacrosse 5 rocket 3.2 22:57:20 10° NW 23:00:53 29° NNE 23:04:16 10° E
Cosmos 1633 3.6 23:01:11 32° E 23:01:20 32° E 23:04:37 10° NNE
Cosmos 1943 Rocket 2.8 22:55:47 10° NNW 23:01:21 53° ENE 23:04:40 24° SE
SL-16 R/B 2.1 23:00:46 36° SSW 23:03:09 78° ESE 23:08:51 10° NNE
Cosmos 1408 4.4 23:03:24 19° WSW 23:04:42 23° WNW 23:07:38 10° NNW
Cosmos 2056 Rocket 4.1 23:01:00 10° NNW 23:06:11 48° WSW 23:07:58 35° SSW
Cosmos 1959 Rocket 4.4 23:06:20 36° S 23:09:04 86° E 23:15:19 10° N
YAOGAN 11 4.3 23:09:09 41° SE 23:10:29 61° ENE 23:14:52 10° N
Cosmos 1743 Rocket 4.2 23:12:36 37° ESE 23:13:28 42° E 23:17:34 10° NNE
Cosmos 2341 Rocket 4.4 23:11:46 26° SW 23:15:12 55° WNW 23:21:19 10° N
Cosmos 332 Rocket 3.7 23:15:06 10° NNW 23:19:55 84° ENE 23:21:28 44° SSE
Cosmos 1048 Rocket 4.5 23:19:32 37° SSE 23:21:02 47° ESE 23:26:04 10° NNE
USA 267 4.0 23:21:24 29° SSW 23:22:57 33° SW 23:28:45 10° WNW
Meteor 2-3 Rocket 3.7 23:21:02 39° S 23:23:17 89° E 23:29:01 10° NNE
Cosmos 2151 4.4 23:23:52 22° WSW 23:25:37 30° WNW 23:29:24 10° N
Helios 1A 2.9 23:24:53 55° S 23:25:42 75° WSW 23:29:53 10° NNW
Cosmos 405 3.0 23:25:18 10° N 23:28:50 69° ENE 23:29:08 64° ESE
Meteor 1-26 Rocket 4.4 23:26:57 10° NNW 23:32:57 71° W 23:35:20 37° S
Cosmos 1452 Rocket 3.5 23:28:04 10° NNW 23:33:21 74° WSW 23:35:06 42° S
SL-8 Rocket 4.4 23:30:59 27° SW 23:34:10 53° WNW 23:40:12 10° N
CZ-4C R/B 3.4 23:27:30 10° NW 23:34:26 59° NE 23:42:28 10° ESE
Cosmos 1825 4.3 23:32:56 15° W 23:34:28 18° WNW 23:37:09 10° NNW
Cosmos 1340 3.1 23:34:23 45° WSW 23:35:01 51° WNW 23:38:43 10° N
COSMOS 2455 2.8 23:29:17 10° NW 23:35:22 88° WSW 23:38:24 31° SSE
PSLV R/B 3.9 23:31:36 10° NNE 23:35:43 51° E 23:36:34 43° SE
ALOS 2 3.8 23:35:27 27° WSW 23:36:19 29° W 23:40:10 10° NW
Cosmos 1408 Rocket 3.9 23:35:56 41° SW 23:37:08 57° WNW 23:41:30 10° N
Cosmos 1933 4.2 23:33:56 10° NNW 23:37:38 36° W 23:38:13 34° WSW
SL-16 R/B 4.3 23:33:00 10° ESE 23:38:02 27° ENE 23:43:05 10° N
Cosmos 1603 4.3 23:36:25 33° SSE 23:38:12 43° ESE 23:43:34 10° NE
Cosmos 1151 Rocket 3.9 23:35:13 10° NNW 23:39:10 35° W 23:40:03 32° WSW
Cosmos 1727 Rocket 4.1 23:39:10 10° NNW 23:45:21 67° W 23:48:04 35° SSW
APEX 4.0 23:42:48 10° NW 23:44:21 27° WNW 23:44:21 27° WNW
Cosmos 1500 Rocket 3.5 23:44:49 51° S 23:45:54 88° ESE 23:50:19 10° N
Cosmos 2369 Rocket 2.2 23:40:18 10° NNW 23:45:56 79° ENE 23:48:49 30° SE
Cosmos 44 3.9 23:43:38 23° WSW 23:45:59 46° NW 23:50:18 10° NNE
Resurs 1-4 Rocket 4.2 23:42:39 10° NE 23:46:00 17° E 23:48:44 12° ESE
ISS -1.3 23:51:00 14° E 23:51:00 14° E 23:51:41 10° E
Cosmos 371 Rocket 4.0 23:44:58 10° NW 23:49:28 38° WSW 23:50:25 35° SW
SeaSat 1 4.0 23:46:14 10° NE 23:50:04 22° ESE 23:51:20 20° SE
Helios 1B rocket 2.5 23:50:24 10° NNE 23:54:32 67° ESE 23:55:23 51° SSE
CREW DRAGON DEMO-1 DEB 4.1 23:54:48 19° WNW 23:56:39 41° NNW 23:59:35 10° ENE
